This is the latest recevied weather packets stored in our database for station/object KC3UTO. If no packets are shown the sender has not sent any weather packets the latest 10 day(s).
| Time | Temp. | Humidity | Pressure | Rain* | Wind** | Luminosity | Snow |
|---|---|---|---|---|---|---|---|
| 1777660170 | 17.22° C | 35% | 1011 hPa | 0 mm | - | 836 W/m² | - |
| 1777659867 | 17.22° C | 34% | 1011 hPa | 0 mm | - | 856 W/m² | - |
| 1777658958 | 16.67° C | 37% | 1011.2 hPa | 0 mm | - | 876 W/m² | - |
| 1777657140 | 16.67° C | 37% | 1011.3 hPa | 0 mm | - | 912 W/m² | - |
| 1777656533 | 17.22° C | 40% | 1011.3 hPa | 0 mm | - | 917 W/m² | - |
| 1777655621 | 16.11° C | 40% | 1011.7 hPa | 0 mm | - | 939 W/m² | - |
| 1777654410 | 16.11° C | 39% | 1011.9 hPa | 0 mm | - | 931 W/m² | - |
| 1777654107 | 15.56° C | 46% | 1011.8 hPa | 0 mm | - | 913 W/m² | - |
| 1777653805 | 15° C | 42% | 1012 hPa | 0 mm | - | 104 W/m² | - |
| 1777653500 | 15.56° C | 41% | 1012 hPa | 0 mm | - | 99 W/m² | - |
| 1777653197 | 15° C | 43% | 1012.1 hPa | 0 mm | - | 99 W/m² | - |
| 1777652894 | 15° C | 42% | 1012.3 hPa | 0 mm | - | 137 W/m² | - |
| 1777652591 | 15° C | 47% | 1012.2 hPa | 0 mm | - | 883 W/m² | - |
| 1777652288 | 13.89° C | 44% | 1012.4 hPa | 0 mm | - | 922 W/m² | - |
| 1777651985 | 14.44° C | 42% | 1012.3 hPa | 0 mm | - | 279 W/m² | - |
| 1777651681 | 15° C | 44% | 1012.4 hPa | 0 mm | - | 863 W/m² | - |
| 1777651378 | 14.44° C | 43% | 1012.4 hPa | 0 mm | - | 899 W/m² | - |
| 1777651075 | 15° C | 41% | 1012.4 hPa | 0 mm | - | 892 W/m² | - |
| 1777650772 | 14.44° C | 42% | 1013 hPa | 0 mm | - | 889 W/m² | - |
| 1777650469 | 14.44° C | 41% | 1012.7 hPa | 0 mm | - | 884 W/m² | - |
| 1777650166 | 14.44° C | 42% | 1013.1 hPa | 0 mm | - | 879 W/m² | - |
| 1777649863 | 13.89° C | 44% | 1013 hPa | 0 mm | - | 110 W/m² | - |
| 1777649561 | 13.33° C | 45% | 1013.1 hPa | 0 mm | - | 92 W/m² | - |
| 1777649258 | 13.89° C | 42% | 1013.2 hPa | 0 mm | - | 812 W/m² | - |
| 1777648954 | 13.89° C | 47% | 1013.2 hPa | 0 mm | - | 845 W/m² | - |
* Rain latest hour (hover to see other rain measurements)
** Current wind speed in m/s (hover to see current wind gust speed)